Location: Allaines
(49.9632°N, 2.9458°E)
Time: 22:55:41
(UTC+00:00)

Cosmos 1825 Rocket - Pass Details

Date: 09 April 2020
Orbit: 603 x 631 km, 82.5° (Epoch: 27 May)

Event Time Altitude Azimuth Distance (km) Brightness Sun altitude
Rises 19:01:58 0° 349° (N) 2,908 7.5 -5.3°
Reaches altitude 10° 19:04:13 10° 349° (N) 1,992 6.6 -5.6°
Maximum altitude 19:08:38 87° 263° (W) 621 3.6 -6.3°
Drops below altitude 10° 19:12:58 10° 173° (S) 1,959 5.9 -6.9°
Sets 19:15:10 0° 173° (S) 2,855 6.7 -7.2°
